CAPE
0 0 0 0 0 0 0 0 0 0 0 0 0 0 0 0 0 0 0 1 1 2
0 0 0 0 0 0 0 0 0 0 0 0 0 0 0 0 0 0 0 0 0 0
0 0 0 0 0 0 0 0 0 0 0 0 0 0 0 0 0 0 0 0 0 0
0 0 0 0 0 0 0 0 0 0 0 0 0 0 0 0 0 0 0 0 0 0
0 0 0 0 0 0 0 0 0 0 0 0 0 0 0 0 0 0 0 0 0 0
0 0 0 0 0 0 0 0 0 0 0 0 0 0 0 0 0 0 0 0 0 0
0 0 0 0 0 0 0 0 0 0 0 0 0 0 0 0 0 0 0 0 0 0
0 0 0 0 0 0 0 0 0 0 0 0 0 0 0 0 0 0 0 0 0 0
0 0 0 0 0 0 0 0 0 0 0 0 0 0 0 0 0 0 0 0 0 0
0 0 0 0 0 0 0 0 0 0 0 0 0 0 0 0 0 0 0 0 0 0
0 0 0 0 0 0 0 0 0 0 0 0 0 0 0 0 0 0 0 0 0 0
0 0 0 0 0 0 0 0 0 0 0 0 0 0 0 0 0 0 0 0 0 0
0 0 0 0 0 0 0 0 0 0 0 0 0 0 0 0 0 0 0 0 0 0
0 0 0 0 0 0 0 0 0 0 0 0 0 0 0 0 0 0 0 0 0 0
CIN
-0 -0 -0 -0 -0 -0 -0 -0 -0 -0 -0 -0 -0 -0 -0 -0 -0 -0 -0 -0 -0 -1
-0 -0 -0 -0 -0 -0 -0 -0 -0 -0 -0 -0 -0 -0 -0 -0 -0 -0 -0 -0 -0 -0
-0 -0 -0 -0 -0 -0 -0 -0 -0 -0 -0 -0 -0 -0 -0 -0 -0 -0 -0 -0 -0 -0
-0 -0 -0 -0 -0 -0 -0 -0 -0 -0 -0 -0 -0 -0 -0 -0 -0 -0 -0 -0 -0 -0
-0 -0 -0 -0 -0 -0 -0 -0 -0 -0 -0 -0 -0 -0 -0 -0 -0 -0 -0 -0 -0 -0
-0 -0 -0 -0 -0 -0 -0 -0 -0 -0 -0 -0 -0 -0 -0 -0 -0 -0 -0 -0 -0 -0
-0 -0 -0 -0 -0 -0 -0 -0 -0 -0 -0 -0 -0 -0 -0 -0 -0 -0 -0 -0 -0 -0
-0 -0 -0 -0 -0 -0 -0 -0 -0 -0 -0 -0 -0 -0 -0 -0 -0 -0 -0 -0 -0 -0
-0 -0 -0 -0 -0 -0 -0 -0 -0 -0 -0 -0 -0 -0 -0 -0 -0 -0 -0 -0 -0 -0
-0 -0 -0 -0 -0 -0 -0 -0 -0 -0 -0 -0 -0 -0 -0 -0 -0 -0 -0 -0 -0 -0
-0 -0 -0 -0 -0 -0 -0 -0 -0 -0 -0 -0 -0 -0 -0 -0 -0 -0 -0 -0 -0 -0
-0 -0 -0 -0 -0 -0 -0 -0 -0 -0 -0 -0 -0 -0 -0 -0 -0 -0 -0 -0 -0 -0
-0 -0 -0 -0 -0 -0 -0 -0 -0 -0 -0 -0 -0 -0 -0 -0 -0 -0 -0 -0 -0 -0
-0 -0 -0 -0 -0 -0 -0 -0 -0 -0 -0 -0 -0 -0 -0 -0 -0 -0 -0 -0 -0 -0
Wind_Speed
28 27 25 23 22 21 20 20 21 20 20 20 19 21 23 24 25 25 25 25 26 27
30 28 26 24 21 21 21 23 22 22 22 22 21 22 23 24 24 24 25 26 27 27
30 27 25 23 22 21 21 22 23 23 23 23 23 23 24 25 25 26 27 26 28 26
29 27 23 22 22 22 22 22 23 24 25 25 26 26 26 26 27 27 27 27 28 28
31 29 26 23 22 22 22 23 24 25 25 26 26 27 27 29 28 29 29 30 29 30
31 30 28 26 25 24 24 24 24 25 26 27 27 28 28 29 30 30 30 30 30 30
30 29 28 26 25 24 24 25 25 25 26 27 27 27 28 28 29 29 30 30 29 29
29 28 28 28 27 26 25 25 25 27 28 29 29 29 30 29 29 30 30 29 29 29
28 29 29 29 29 28 28 27 27 28 29 30 31 32 32 31 31 30 31 32 31 30
28 29 29 29 29 30 30 29 30 30 30 31 32 33 33 33 32 32 33 33 34 34
29 29 30 30 30 31 31 31 32 32 32 33 33 34 35 35 35 35 35 35 35 36
29 30 31 32 33 33 33 33 33 33 34 34 35 35 35 35 35 36 37 36 35 35
30 31 33 33 34 32 33 35 35 36 35 35 35 35 35 34 34 37 38 37 35 35
31 33 33 34 33 35 35 36 37 37 37 36 35 36 35 35 36 38 40 41 41 37
Wind_Direction
346 344 344 344 345 347 349 350 350 352 352 350 347 340 329 319 314 310 310 310 309 307
346 344 342 344 345 343 342 339 341 343 341 341 339 335 330 326 323 320 315 312 311 310
346 346 346 345 345 344 340 338 336 333 333 331 332 330 326 322 320 317 315 315 313 312
351 351 351 348 345 343 340 337 334 331 328 326 323 321 320 319 318 316 314 313 311 310
352 352 354 354 352 349 343 338 334 331 329 327 324 322 320 317 316 314 311 310 309 308
353 354 355 353 350 348 345 342 337 333 329 326 324 322 321 318 316 314 313 312 310 309
356 357 357 356 355 351 347 342 338 335 331 328 326 324 323 321 318 316 314 312 312 311
351 352 351 351 351 350 348 344 341 336 330 327 325 323 322 321 319 317 316 315 314 312
347 347 346 346 345 344 343 341 339 334 331 328 324 321 319 318 318 317 316 314 314 313
342 342 342 342 340 339 337 337 334 332 330 327 324 321 318 316 315 313 313 312 311 311
338 338 338 337 336 335 333 332 331 329 328 326 324 321 319 317 314 312 312 311 311 309
333 332 332 331 330 329 328 326 326 325 324 323 321 321 320 318 317 315 314 315 314 313
330 329 328 327 326 325 324 322 322 321 321 320 319 320 320 319 317 315 315 317 316 315
326 325 324 323 322 320 319 318 317 317 317 317 317 317 318 318 317 314 313 312 312 313